Dublin, VA

8:57 AM EDT on July 23, 2017 (GMT -0400)
New River Valley

Weather History for KPSK - May, 2013

Change the Weather History Date:

Wednesday, May 8, 2013

  Actual Average (KBCB) Record (KBCB)
Temperature  
Mean Temperature 53 °F -  
Max Temperature 60 °F 70 °F 85 °F (1969)
Min Temperature 46 °F 44 °F 30 °F (1974)
Degree Days  
Heating Degree Days 12    
Growing Degree Days 3 (Base 50)    
Moisture  
Dew Point 51 °F    
Average Humidity 98    
Maximum Humidity 100    
Minimum Humidity 77    
Precipitation  
Precipitation 0.10 in - - ()
Sea Level Pressure  
Sea Level Pressure 29.99 in    
Wind  
Wind Speed 2 mph (NNE)    
Max Wind Speed 7 mph    
Max Gust Speed -    
Visibility 6 miles    
Events Rain    
Averages and records for this station are not official NWS values.
T = Trace of Precipitation, MM = Missing Value Source: NWS Daily Summary

Daily Weather History Graph

Daily Weather History Graph

Search for Another Location

Airport or City:

Trip Planner

Search our weather history database for the weather conditions in past years. The results will help you decide how hot, cold, wet, or windy it might be!

Date:

Astronomy

May. 08, 2013 Rise Set
Actual Time 6:20 AM EDT 8:18 PM EDT
Civil Twilight 5:51 AM EDT 8:47 PM EDT
Nautical Twilight 5:17 AM EDT 9:21 PM EDT
Astronomical Twilight 4:40 AM EDT 9:59 PM EDT
Moon 5:25 AM EDT (5/8) 7:16 PM EDT (5/8)
Length of Visible Light 14h 55m
Length of Day
13h 57m
Waning Crescent, 2% of the Moon is Illuminated
May 8
Waning Crescent
May 9
New
May 18
First Quarter
May 25
Full
May 31
Last Quarter

Hourly Weather History & Observations

Time (EDT) Temp. Windchill Dew Point Humidity Pressure Visibility Wind Dir Wind Speed Gust Speed Precip Events Conditions
12:15 AM 46.4 °F 45.2 °F 46.4 °F 100% 29.97 in - West 3.5 mph - N/A   Unknown
12:35 AM 46.4 °F 45.2 °F 46.4 °F 100% 29.97 in 2.0 mi WSW 3.5 mph - N/A   Mist
12:55 AM 46.4 °F - 46.4 °F 100% 29.96 in 4.0 mi Calm Calm - N/A   Mostly Cloudy
1:15 AM 46.4 °F - 46.4 °F 100% 29.96 in 1.8 mi Calm Calm - N/A   Mostly Cloudy
1:35 AM 46.4 °F - 46.4 °F 100% 29.96 in 4.0 mi Calm Calm - N/A   Mostly Cloudy
1:55 AM - - - N/A% 29.96 in - Calm Calm - N/A   Unknown
2:15 AM 46.4 °F - 46.4 °F 100% 29.95 in 3.0 mi Calm Calm - N/A   Overcast
2:35 AM 46.4 °F - 46.4 °F 100% 29.95 in 5.0 mi Calm Calm - N/A   Overcast
2:55 AM 46.4 °F - 46.4 °F 100% 29.95 in 4.0 mi Calm Calm - N/A   Overcast
3:15 AM 46.4 °F - 46.4 °F 100% 29.95 in - Calm Calm - N/A   Overcast
3:35 AM 48.2 °F - 48.2 °F 100% 29.95 in - Calm Calm - N/A   Overcast
3:55 AM 48.2 °F - 48.2 °F 100% 29.95 in - Calm Calm - N/A   Overcast
4:15 AM 48.2 °F - 48.2 °F 100% 29.95 in - Calm Calm - N/A   Unknown
4:35 AM 48.2 °F - 48.2 °F 100% 29.95 in - Calm Calm - N/A   Unknown
4:55 AM 48.2 °F - 48.2 °F 100% 29.96 in - Calm Calm - N/A   Overcast
5:15 AM 48.2 °F - 48.2 °F 100% 29.96 in - Calm Calm - N/A   Overcast
5:35 AM 48.2 °F - 48.2 °F 100% 29.95 in 2.0 mi Calm Calm - N/A   Overcast
5:55 AM 48.2 °F - 48.2 °F 100% 29.96 in - Calm Calm - N/A   Overcast
6:15 AM 48.2 °F - 48.2 °F 100% 29.96 in - Calm Calm - 0.01 in   Overcast
6:35 AM 48.2 °F - 48.2 °F 100% 29.96 in 2.0 mi Calm Calm - N/A   Light Drizzle
6:55 AM 48.2 °F - 48.2 °F 100% 29.97 in 1.0 mi Calm Calm - N/A   Light Drizzle
7:15 AM 48.2 °F - 48.2 °F 100% 29.97 in - Calm Calm - N/A   Overcast
7:35 AM 50.0 °F - 50.0 °F 100% 29.98 in - Calm Calm - N/A   Overcast
7:55 AM 50.0 °F - 50.0 °F 100% 29.98 in 0.8 mi ENE 3.5 mph - 0.01 in Rain Rain
8:15 AM 50.0 °F - 50.0 °F 100% 29.99 in 2.5 mi Calm Calm - 0.01 in Rain Rain
8:35 AM 50.0 °F - 50.0 °F 100% 29.99 in 3.0 mi Calm Calm - 0.01 in Rain Rain
8:55 AM 50.0 °F - 50.0 °F 100% 30.00 in 3.0 mi Calm Calm - 0.01 in Rain Rain
9:15 AM 50.0 °F - 50.0 °F 100% 30.00 in 3.0 mi ENE 4.6 mph - 0.01 in Rain Rain
9:35 AM 50.0 °F - 50.0 °F 100% 30.00 in 4.0 mi ENE 4.6 mph - 0.02 in Rain Rain
9:55 AM 50.0 °F - 50.0 °F 100% 30.00 in 4.0 mi East 5.8 mph - N/A Rain Rain
10:15 AM 50.0 °F - 50.0 °F 100% 30.00 in 2.0 mi Calm Calm - 0.03 in Rain Rain
10:35 AM 50.0 °F - 50.0 °F 100% 30.00 in 5.0 mi East 4.6 mph - 0.01 in Rain Rain
10:55 AM 50.0 °F - 50.0 °F 100% 30.00 in 5.0 mi East 4.6 mph - 0.01 in Rain Rain
11:15 AM 51.8 °F - 51.8 °F 100% 30.00 in 4.0 mi East 4.6 mph - 0.01 in Rain Heavy Rain
11:35 AM 51.8 °F - 51.8 °F 100% 30.00 in 5.0 mi ENE 4.6 mph - 0.01 in Rain Rain
11:55 AM 51.8 °F - 51.8 °F 100% 29.99 in 5.0 mi ENE 5.8 mph - 0.01 in Rain Rain
12:15 PM 51.8 °F - 51.8 °F 100% 29.99 in 4.0 mi NE 4.6 mph - 0.01 in Rain Rain
12:35 PM 51.8 °F - 51.8 °F 100% 29.99 in 3.0 mi NE 4.6 mph - 0.01 in Rain Rain
12:55 PM 51.8 °F - 51.8 °F 100% 29.98 in 2.0 mi NE 5.8 mph - 0.01 in Rain Rain
1:15 PM 51.8 °F - 51.8 °F 100% 29.99 in 2.5 mi NE 5.8 mph - N/A Rain Rain
1:35 PM 53.6 °F - 53.6 °F 100% 29.99 in 4.0 mi ENE 5.8 mph - N/A   Overcast
1:55 PM 53.6 °F - 53.6 °F 100% 29.99 in 3.0 mi NNE 5.8 mph - N/A Rain Rain
2:15 PM 53.6 °F - 53.6 °F 100% 29.99 in 2.5 mi NE 4.6 mph - N/A   Light Drizzle
2:35 PM 53.6 °F - 53.6 °F 100% 30.00 in 7.0 mi NE 5.8 mph - N/A   Overcast
2:55 PM 53.6 °F - 53.6 °F 100% 30.00 in 5.0 mi NE 6.9 mph - N/A   Overcast
3:15 PM 55.4 °F - 55.4 °F 100% 30.00 in 10.0 mi NE 4.6 mph - N/A   Overcast
3:35 PM 55.4 °F - 55.4 °F 100% 30.00 in 10.0 mi NE 4.6 mph - N/A   Overcast
3:55 PM 55.4 °F - 55.4 °F 100% 30.00 in 10.0 mi Calm Calm - N/A   Overcast
4:35 PM 55.4 °F - 55.4 °F 100% 30.01 in 7.0 mi Calm Calm - N/A Rain Light Rain
4:55 PM 57.2 °F - 55.4 °F 94% 30.01 in 10.0 mi NW 3.5 mph - N/A   Overcast
5:15 PM 57.2 °F - 53.6 °F 88% 30.01 in 10.0 mi Calm Calm - N/A   Overcast
5:35 PM 57.2 °F - 55.4 °F 94% 30.01 in 10.0 mi Calm Calm - N/A   Overcast
5:55 PM 59.0 °F - 55.4 °F 88% 30.01 in 10.0 mi NNW 4.6 mph - N/A   Mostly Cloudy
6:15 PM 60.8 °F - 53.6 °F 77% 30.01 in 10.0 mi NW 4.6 mph - N/A   Scattered Clouds
6:35 PM 60.8 °F - 55.4 °F 82% 30.01 in 10.0 mi West 4.6 mph - N/A   Mostly Cloudy
6:55 PM 60.8 °F - 53.6 °F 77% 30.01 in 10.0 mi WSW 4.6 mph - N/A   Scattered Clouds
7:15 PM 57.2 °F - 55.4 °F 94% 30.01 in 10.0 mi West 3.5 mph - N/A   Scattered Clouds
7:35 PM 57.2 °F - 55.4 °F 94% 30.01 in 10.0 mi WSW 3.5 mph - N/A   Clear
7:55 PM 55.4 °F - 55.4 °F 100% 30.02 in 10.0 mi Calm Calm - N/A   Clear
8:15 PM 55.4 °F - 53.6 °F 94% 30.03 in 10.0 mi Calm Calm - N/A   Scattered Clouds
8:35 PM 53.6 °F - 51.8 °F 94% 30.03 in 10.0 mi WSW 3.5 mph - N/A   Scattered Clouds
8:55 PM 53.6 °F - 53.6 °F 100% 30.04 in 10.0 mi Calm Calm - N/A   Clear
9:15 PM 51.8 °F - 51.8 °F 100% 30.04 in 10.0 mi Calm Calm - N/A   Clear
9:35 PM 53.6 °F - 53.6 °F 100% 30.04 in 10.0 mi SW 3.5 mph - N/A   Clear
9:55 PM 51.8 °F - 51.8 °F 100% 30.05 in 10.0 mi SW 4.6 mph - N/A   Clear
10:15 PM 51.8 °F - 51.8 °F 100% 30.06 in 10.0 mi SW 5.8 mph - N/A   Clear
10:35 PM 51.8 °F - 51.8 °F 100% 30.06 in 10.0 mi West 3.5 mph - N/A   Clear
11:15 PM 50.0 °F - 50.0 °F 100% 30.07 in 10.0 mi South 3.5 mph - N/A   Clear
11:35 PM 51.8 °F - 51.8 °F 100% 30.06 in 10.0 mi SSW 6.9 mph - N/A   Clear
11:55 PM 51.8 °F - 51.8 °F 100% 30.07 in 10.0 mi SW 5.8 mph - N/A   Clear